Dewpoint
-8 -5 -3 -5 -6 -6 -7 -6 -5 -5 -12 -11 -10 -9 -10 -10 -6 -6 -4 -3 -2 -1 -1 -1 -3 -7 -9 -11 -12 -12 -13 -14 -15 -16 -17 -16 -14 -12 -11 -11 -10 -8 -7 -6
-6 -3 -4 -7 -8 -8 -8 -6 -5 -6 -9 -10 -8 -7 -9 -12 -6 -7 -6 -3 -2 -1 -1 -1 -3 -6 -9 -10 -11 -12 -12 -12 -13 -14 -14 -13 -11 -8 -8 -8 -9 -9 -8 -6
-1 -3 -8 -6 -7 -7 -5 -5 -5 -5 -7 -9 -8 -6 -7 -13 -8 -6 -5 -4 -2 -1 -1 -2 -3 -4 -7 -10 -11 -11 -11 -11 -12 -12 -11 -9 -4 -3 -4 -9 -6 -10 -10 -9
-4 -6 -5 -5 -4 -6 -1 -4 -5 -6 -6 -2 -11 -5 -7 -9 -6 -4 -4 -3 -2 -1 -1 -2 -3 -4 -6 -9 -10 -10 -11 -11 -11 -11 -10 -9 -5 -4 -8 -6 -9 -11 -10 -10
-4 -6 -5 -4 -3 -4 -3 -6 -5 -5 -4 -4 -5 -6 -7 -10 -7 -6 -4 -3 -2 -1 -1 -2 -4 -4 -6 -9 -9 -9 -9 -10 -10 -10 -9 -8 -5 -4 -2 -2 -3 -5 -9 -9
-4 -7 -7 -5 -8 -7 -8 -7 -7 -7 -5 -1 -3 -4 -6 -6 -7 -8 -7 -4 -2 -1 -1 -2 -4 -5 -5 -9 -9 -9 -9 -8 -9 -9 -9 -8 -8 -5 -2 -2 -2 -3 -4 -6
-2 -5 -6 -7 -4 -9 -9 -6 -3 -3 -4 -4 -8 -6 -7 -8 -6 -6 -6 -4 -2 -1 -1 -2 -4 -5 -5 -6 -8 -8 -8 -8 -8 -9 -8 -9 -8 -5 -3 -2 -2 -2 -2 -3
2 2 -1 -2 -2 -3 -5 -4 -1 0 -2 -4 -8 -6 -7 -5 -4 -4 -3 -3 -1 -1 -1 -3 -4 -4 -5 -7 -7 -8 -9 -8 -9 -9 -9 -7 -6 -3 -3 -2 -2 -2 -2 -3
3 2 -3 -5 -4 -4 -1 -1 -3 1 -0 0 -3 -6 -6 -5 -4 -3 -3 -2 -1 -1 -1 -3 -4 -4 -5 -6 -8 -10 -10 -10 -12 -12 -11 -8 -6 -4 -4 -4 -3 -3 -3 -4
2 2 -4 -4 -7 -7 -4 -6 -2 1 6 7 1 -1 -3 -4 -4 -2 -2 -2 -1 -1 -2 -3 -4 -4 -5 -8 -9 -11 -11 -11 -12 -11 -11 -9 -7 -5 -5 -6 -4 -4 -4 -5
-0 1 -5 -5 -4 -2 -4 -3 -3 -1 2 3 1 -3 -5 -4 -5 -2 -2 -1 -1 -1 -2 -3 -3 -4 -6 -7 -7 -9 -11 -11 -10 -10 -10 -8 -8 -7 -6 -7 -6 -4 -5 -5
-2 1 -0 -3 -4 -4 -6 -4 -3 3 1 -1 -1 -2 -5 -4 -4 -4 -2 -1 -1 -1 -2 -3 -3 -4 -5 -6 -9 -9 -11 -10 -10 -10 -9 -8 -7 -7 -6 -5 -6 -5 -5 -5
-1 -1 -0 -2 -3 -0 -1 -2 -2 -3 -0 0 2 -1 -5 -4 -3 -3 -2 -1 -1 -2 -2 -3 -3 -6 -8 -10 -11 -10 -10 -8 -9 -9 -8 -6 -7 -7 -6 -6 -7 -6 -6 -6
-5 -1 -3 -3 -6 -2 1 1 -2 1 7 2 3 1 -4 -5 -3 -2 -2 -1 -1 -2 -2 -3 -5 -7 -8 -9 -10 -11 -10 -9 -10 -9 -6 -6 -7 -7 -7 -8 -7 -6 -7 -7
-7 -2 -4 -4 -6 -6 -6 -6 -6 -0 -1 2 -0 -3 -4 -5 -4 -3 -2 -1 -1 -2 -2 -3 -6 -7 -8 -9 -10 -10 -10 -10 -10 -8 -7 -7 -6 -7 -7 -8 -7 -7 -7 -7
-2 0 -3 -3 -7 -9 -7 -8 -8 -6 -4 -6 -5 -3 -7 -8 -5 -3 -2 -1 -2 -2 -3 -4 -4 -7 -7 -6 -9 -10 -10 -10 -8 -7 -7 -7 -7 -7 -7 -8 -7 -7 -7 -7
-3 -2 -1 1 -5 -4 2 -1 -3 -1 -4 -4 -0 -3 -5 -4 -3 -3 -2 -1 -1 -2 -3 -4 -4 -5 -4 -8 -9 -9 -9 -9 -8 -7 -7 -7 -8 -8 -8 -8 -7 -8 -8 -8
-3 -2 -2 -1 -3 2 -6 -10 -6 -5 -3 -2 -1 -1 -2 -3 -0 0 -0 -0 -1 -3 -4 -4 -3 -1 -6 -9 -10 -10 -9 -8 -7 -7 -7 -8 -9 -8 -8 -8 -8 -9 -9 -9
-5 -3 -1 -0 -3 -6 -8 -9 -8 -2 -2 -6 -2 -2 -3 -1 -1 -2 -1 -1 -2 -4 -3 -2 -1 -5 -9 -10 -10 -9 -8 -8 -8 -7 -8 -8 -9 -9 -9 -9 -8 -9 -9 -9
-9 -5 -1 -2 -2 -3 -9 -8 -6 -5 1 -6 -5 -4 -1 -1 1 -1 -3 -3 -3 -3 -5 -6 -7 -9 -10 -9 -9 -9 -9 -8 -8 -8 -8 -9 -9 -9 -9 -9 -9 -9 -9 -9
-1 -1 0 -1 -1 -5 -10 -12 -9 -2 -4 -2 -2 -2 -1 1 1 -3 -4 -5 -6 -6 -6 -8 -9 -9 -9 -9 -9 -9 -9 -9 -9 -8 -8 -9 -9 -9 -10 -10 -10 -9 -10 -10
-7 -2 -1 -1 -0 -1 -11 -9 -4 -4 -1 -1 -0 -1 -0 -2 -4 -5 -6 -7 -7 -8 -9 -9 -10 -9 -9 -9 -9 -9 -10 -9 -9 -9 -9 -9 -10 -10 -10 -10 -11 -10 -11 -11
-3 -6 -5 -2 -0 -5 -2 -2 -0 -0 -1 -1 -1 -1 -3 -4 -5 -6 -7 -7 -9 -9 -10 -10 -10 -9 -9 -9 -9 -10 -10 -10 -10 -10 -10 -10 -10 -10 -10 -11 -11 -12 -12 -12
-5 -6 -2 -5 -6 -5 -2 -1 -1 -0 0 -1 -2 -3 -4 -5 -6 -7 -8 -9 -10 -10 -10 -10 -10 -10 -9 -9 -10 -10 -10 -11 -12 -12 -12 -12 -11 -11 -11 -11 -12 -12 -13 -13
-5 -4 -3 -5 -6 -1 -1 -0 0 -1 -2 -3 -3 -4 -5 -6 -7 -7 -9 -10 -10 -10 -10 -10 -10 -10 -10 -10 -10 -11 -11 -12 -13 -13 -12 -12 -12 -12 -12 -12 -13 -13 -14 -15
-3 0 -0 -0 -3 -2 -1 -0 -0 -2 -3 -4 -5 -5 -6 -7 -7 -8 -9 -10 -10 -10 -11 -11 -10 -10 -10 -11 -12 -13 -13 -15 -15 -13 -13 -13 -12 -12 -12 -12 -12 -13 -14 -15
Wind_Speed
11 10 12 12 11 10 8 9 12 13 2 6 14 15 15 14 19 22 25 25 23 21 17 12 8 7 5 4 3 4 5 7 8 10 12 13 14 13 13 14 15 15 17 18
7 15 15 10 9 10 10 12 15 14 10 8 15 19 17 13 23 26 27 26 25 22 18 14 9 8 6 4 4 4 5 7 8 10 12 13 14 12 13 15 16 16 17 18
18 6 2 13 10 12 14 14 13 12 9 14 14 20 22 13 18 20 23 25 26 26 21 16 10 7 5 5 4 4 4 7 9 12 12 13 11 10 11 16 15 19 19 19
15 19 11 9 13 13 16 10 14 11 9 8 3 9 3 13 16 15 22 26 28 26 21 16 11 7 6 5 3 3 4 7 10 12 13 14 13 13 16 15 17 19 20 21
5 7 13 18 18 12 14 3 10 10 11 13 15 8 9 9 14 19 22 27 25 23 21 17 12 8 6 5 3 3 5 7 10 12 13 12 13 13 12 14 17 18 19 21
19 8 6 6 3 11 2 7 7 7 9 13 14 12 13 9 11 13 18 23 24 22 19 16 11 8 5 4 3 3 5 7 10 12 13 14 15 15 14 14 16 17 20 20
17 23 15 10 10 5 11 8 8 9 8 14 1 9 17 4 3 1 8 20 23 22 21 17 12 8 5 2 2 4 5 7 10 12 13 15 16 15 15 15 17 19 18 19
5 6 15 17 25 20 14 16 10 11 12 12 4 9 6 4 1 4 5 14 21 21 19 16 12 8 4 2 2 4 6 8 11 13 14 15 15 14 14 14 17 17 18 21
5 5 1 3 15 15 13 11 16 19 18 11 13 15 7 4 4 2 7 16 21 21 19 16 11 8 5 2 4 6 8 10 13 15 16 16 16 16 16 17 16 17 19 21
2 7 5 6 5 10 15 1 5 5 5 7 11 15 14 12 11 7 8 13 17 19 19 16 12 8 5 2 4 7 10 12 14 16 17 18 17 17 19 19 18 20 22 24
4 4 7 1 7 11 6 10 7 1 7 8 14 13 6 7 3 8 11 16 20 21 19 16 12 9 5 1 3 7 10 12 14 16 18 18 19 19 20 21 20 21 23 24
5 4 8 15 8 8 10 13 15 10 12 12 14 19 5 5 6 10 11 16 19 20 20 16 12 8 4 0 4 8 11 13 15 16 18 18 19 20 20 21 22 21 23 23
8 2 6 11 12 10 8 13 9 6 5 17 14 17 4 2 4 7 11 16 18 19 18 15 14 10 5 2 5 8 11 13 15 17 17 17 18 19 19 21 23 22 23 23
6 9 12 13 14 2 8 11 10 10 4 10 14 22 21 16 7 11 15 17 20 20 20 16 13 9 4 2 6 9 11 13 16 16 16 17 19 19 20 22 23 22 23 24
6 15 14 19 18 15 18 21 21 15 17 13 20 20 25 20 12 17 18 21 23 23 20 16 14 9 3 3 7 11 12 13 15 14 15 17 18 18 19 22 22 22 23 22
1 7 9 17 16 16 21 24 23 21 23 23 24 27 25 29 7 15 19 21 23 21 20 16 12 8 1 5 9 11 12 13 12 12 13 14 16 18 22 21 21 21 22 22
11 8 7 15 10 8 9 21 21 17 23 22 20 26 19 16 9 14 17 20 20 21 19 16 12 6 1 5 8 9 10 10 10 11 12 14 17 20 21 20 21 22 22 23
14 13 10 12 12 16 14 14 11 14 18 18 19 23 18 17 3 2 9 15 19 22 21 16 10 2 2 5 7 8 9 9 10 11 13 14 19 18 18 19 22 22 22 23
18 15 12 12 13 17 20 16 15 13 19 14 18 18 18 10 9 9 7 13 20 21 17 14 7 4 1 3 5 6 7 9 10 13 14 14 16 18 19 19 21 22 23 23
23 19 14 14 15 19 19 4 6 8 16 13 13 12 8 13 7 5 15 20 21 19 15 12 7 3 2 4 5 6 8 10 11 12 13 13 15 16 17 19 20 22 22 21
7 12 17 16 17 18 21 18 10 12 10 3 2 4 10 7 4 24 22 21 19 17 14 11 8 7 6 6 7 7 8 10 11 12 12 13 15 15 17 19 18 20 21 21
13 9 10 13 19 20 16 11 19 6 3 3 2 5 13 19 24 25 23 21 18 15 12 10 9 8 7 7 7 8 10 10 10 11 12 13 14 16 18 17 18 18 21 22
16 14 12 8 6 5 2 8 4 5 6 3 8 12 21 25 25 24 22 20 16 13 11 10 10 9 8 9 9 9 10 11 10 10 12 14 15 15 16 17 18 19 21 23
10 12 8 12 12 14 8 4 2 4 7 3 11 18 22 27 25 23 20 18 15 12 12 11 10 10 9 9 9 10 10 11 10 12 13 13 14 15 16 16 17 18 21 23
11 10 12 14 14 6 10 8 4 1 9 13 16 18 24 26 23 21 19 16 14 13 12 11 10 10 10 9 9 10 11 12 11 12 13 14 14 16 15 15 16 17 18 21
13 8 7 7 5 9 9 9 8 14 17 18 22 24 21 22 22 20 17 15 14 14 12 12 11 10 10 9 9 11 12 13 13 12 13 15 13 14 15 15 15 17 19 20
Wind_Direction
200 229 232 229 234 282 274 257 264 266 238 280 254 260 260 208 211 212 208 203 200 195 187 183 186 202 209 231 255 276 290 312 329 332 330 338 338 340 339 335 335 335 336 336
199 229 247 240 244 231 248 261 260 274 274 252 266 267 260 214 216 214 211 207 202 195 191 186 185 201 215 231 250 275 309 328 335 336 336 338 338 334 335 338 339 339 338 335
233 213 325 215 218 225 241 239 253 259 300 264 270 265 249 227 221 218 216 212 205 201 196 191 186 190 205 227 246 273 319 336 339 342 343 342 335 328 325 336 339 337 338 336
254 254 231 227 235 229 250 238 259 260 267 266 193 288 228 195 212 217 217 207 202 200 198 193 186 177 203 228 257 302 323 337 340 343 345 342 337 333 330 336 337 340 338 336
228 220 225 238 241 238 264 254 247 240 250 279 240 259 263 178 212 216 214 208 201 198 195 191 181 174 193 223 252 295 332 338 341 339 340 343 334 332 330 329 333 335 337 336
251 250 237 245 255 223 266 211 219 244 256 253 256 235 279 233 219 218 212 204 200 195 194 190 177 175 181 225 263 312 340 337 338 340 339 339 338 337 331 330 335 331 333 331
237 238 224 222 225 179 205 208 249 231 216 257 11 218 254 140 95 268 218 197 195 191 190 187 178 174 172 215 291 326 336 337 338 338 338 338 340 338 335 331 330 331 327 326
248 241 219 225 230 228 212 234 241 259 258 270 147 248 257 86 242 252 209 188 186 188 190 183 175 173 177 224 301 320 331 342 336 336 338 340 339 336 335 325 328 327 324 324
212 235 115 237 231 228 243 230 250 266 270 267 260 252 196 173 201 184 164 169 178 184 185 178 174 172 180 213 295 323 336 336 332 334 336 335 335 334 333 328 327 323 326 324
297 260 246 235 205 231 233 95 185 149 223 235 253 264 265 194 193 187 181 185 184 184 182 177 175 177 189 245 314 327 334 334 334 334 333 332 332 331 330 333 330 330 330 329
349 247 231 179 225 247 189 227 218 31 255 257 266 265 67 51 88 187 197 192 187 186 183 180 178 177 188 237 335 336 334 334 334 335 333 332 330 332 332 333 334 330 331 329
16 297 273 260 262 273 270 251 237 225 231 229 260 272 105 120 169 195 192 190 187 185 183 181 177 167 164 349 338 341 336 334 335 335 333 333 333 336 337 334 336 332 330 330
1 245 271 248 228 222 246 244 272 272 289 250 260 257 82 89 211 216 209 189 187 186 180 176 180 187 196 285 333 344 341 340 340 338 338 337 337 339 338 336 335 335 332 330
317 259 250 261 269 290 276 276 271 257 248 256 236 258 269 272 236 199 201 194 191 189 185 178 186 187 196 315 345 341 340 338 338 341 342 337 339 340 337 339 338 335 332 331
242 253 256 262 267 276 275 274 274 274 266 264 273 275 277 280 249 220 206 197 192 190 187 182 178 185 194 342 337 342 330 333 338 341 343 341 340 336 339 340 340 335 333 335
241 264 267 260 266 254 257 257 256 254 255 256 258 262 268 278 270 210 209 204 197 192 180 174 161 176 203 329 345 328 332 338 344 342 347 343 338 337 342 342 341 335 338 337
266 266 271 271 266 277 272 252 249 248 245 248 257 262 279 281 231 229 219 215 197 182 173 166 154 164 1 329 318 332 337 344 345 346 355 345 342 347 346 345 341 341 337 335
248 247 254 262 282 259 252 259 267 264 256 253 260 262 265 275 325 344 221 201 181 170 163 154 155 175 258 307 329 341 350 353 357 353 360 348 347 348 347 347 345 341 343 339
229 240 247 243 246 257 276 270 268 250 267 268 250 256 261 152 144 65 114 153 157 156 151 151 164 176 292 2 2 13 11 6 4 4 356 349 351 350 351 345 347 345 346 343
225 221 230 238 242 255 258 303 337 288 262 257 247 263 181 170 226 123 130 135 138 137 133 135 146 137 83 41 40 39 21 12 5 2 356 355 354 355 351 351 350 351 344 342
191 215 229 234 247 256 263 270 276 251 260 56 266 211 174 172 41 136 135 131 131 128 128 131 123 107 85 60 55 47 26 15 5 1 358 359 3 358 356 358 353 349 347 346
231 222 219 232 241 248 251 253 224 310 358 304 134 144 125 122 124 132 135 131 125 121 121 119 115 100 79 66 61 42 25 11 7 5 7 6 3 5 358 354 355 355 355 354
240 239 250 206 230 287 299 278 302 301 298 253 151 145 139 133 137 139 136 128 122 124 123 120 114 100 80 66 58 46 28 18 17 14 15 14 10 11 2 3 358 1 1 359
229 237 234 247 256 255 250 245 317 296 335 237 155 151 142 137 140 137 133 128 129 128 124 118 111 101 88 71 58 48 33 27 25 24 21 19 12 19 8 8 8 5 5 4
232 204 229 249 265 261 240 227 237 195 158 150 140 140 136 137 142 136 133 134 134 129 123 117 113 105 93 79 61 47 37 33 33 30 26 25 17 15 12 9 5 14 11 10
211 211 222 246 266 235 291 213 199 167 153 148 143 134 137 143 136 141 136 136 136 131 126 120 115 108 95 80 64 50 43 38 40 35 30 25 20 16 13 11 9 1 8 12
Height
1509 1510 1505 1500 1500 1499 1503 1501 1499 1492 1497 1500 1492 1488 1485 1494 1499 1499 1502 1506 1512 1515 1518 1520 1521 1521 1522 1522 1522 1522 1522 1522 1521 1519 1518 1515 1513 1510 1508 1505 1502 1498 1494 1491
1508 1500 1495 1500 1502 1504 1505 1503 1495 1489 1492 1499 1489 1484 1482 1485 1490 1491 1495 1501 1506 1512 1515 1516 1518 1518 1519 1519 1519 1519 1519 1518 1518 1516 1515 1513 1509 1507 1505 1502 1498 1495 1491 1487
1492 1489 1496 1497 1501 1505 1500 1503 1501 1500 1492 1493 1490 1478 1471 1481 1486 1488 1490 1494 1501 1506 1510 1513 1515 1515 1516 1516 1516 1516 1516 1515 1514 1514 1512 1510 1509 1507 1504 1499 1495 1491 1488 1483
1491 1489 1494 1497 1496 1498 1495 1493 1497 1498 1498 1488 1488 1473 1458 1469 1479 1484 1486 1489 1494 1500 1507 1510 1512 1513 1513 1514 1514 1514 1513 1512 1511 1511 1510 1509 1507 1504 1500 1496 1492 1488 1484 1481
1488 1490 1491 1492 1489 1491 1493 1495 1495 1494 1491 1486 1479 1487 1453 1457 1469 1472 1479 1484 1491 1497 1503 1506 1508 1510 1511 1511 1512 1512 1511 1510 1508 1508 1507 1506 1504 1501 1498 1495 1489 1485 1481 1478
1488 1489 1491 1488 1491 1491 1494 1495 1494 1494 1489 1484 1470 1474 1451 1446 1457 1462 1470 1479 1488 1495 1501 1505 1506 1506 1508 1509 1509 1509 1509 1507 1506 1505 1504 1502 1499 1496 1495 1491 1487 1482 1477 1474
1484 1482 1485 1489 1490 1493 1493 1490 1489 1486 1487 1472 1465 1470 1449 1455 1462 1465 1466 1474 1484 1492 1498 1502 1503 1506 1507 1508 1508 1507 1506 1506 1504 1503 1500 1498 1495 1492 1490 1488 1484 1478 1475 1471
1481 1478 1475 1478 1482 1481 1487 1485 1486 1484 1472 1458 1469 1462 1443 1460 1466 1468 1471 1474 1483 1491 1497 1499 1500 1503 1505 1505 1505 1505 1505 1503 1501 1499 1496 1494 1492 1490 1487 1484 1480 1476 1473 1467
1479 1478 1475 1476 1477 1482 1479 1485 1478 1483 1478 1483 1458 1444 1454 1461 1465 1469 1469 1473 1480 1487 1492 1495 1498 1500 1502 1503 1503 1502 1502 1500 1498 1495 1493 1490 1488 1485 1482 1479 1477 1473 1467 1462
1478 1480 1470 1472 1477 1479 1477 1477 1487 1495 1501 1492 1456 1451 1443 1451 1456 1468 1472 1476 1481 1486 1489 1492 1495 1497 1499 1499 1499 1499 1499 1497 1495 1493 1490 1488 1485 1482 1477 1473 1472 1468 1463 1458
1483 1480 1472 1475 1475 1471 1480 1480 1478 1483 1485 1472 1459 1441 1443 1448 1451 1462 1468 1472 1477 1482 1486 1490 1493 1494 1495 1496 1497 1496 1496 1494 1492 1490 1487 1484 1481 1478 1473 1469 1465 1463 1458 1454
1486 1480 1477 1473 1466 1473 1472 1468 1468 1477 1475 1464 1459 1441 1446 1453 1455 1459 1464 1470 1475 1479 1483 1487 1491 1493 1494 1494 1494 1494 1493 1492 1490 1487 1484 1480 1477 1473 1471 1467 1462 1459 1455 1450
1491 1483 1479 1470 1469 1470 1473 1467 1470 1472 1479 1468 1464 1444 1447 1455 1457 1460 1463 1468 1473 1478 1482 1486 1487 1488 1490 1491 1490 1490 1490 1489 1486 1484 1481 1478 1473 1470 1466 1463 1459 1455 1451 1445
1495 1486 1480 1473 1465 1471 1477 1477 1472 1476 1476 1463 1467 1455 1445 1445 1456 1457 1461 1465 1470 1475 1478 1481 1484 1486 1487 1487 1487 1486 1486 1485 1482 1480 1479 1476 1472 1467 1463 1458 1455 1453 1448 1442
1490 1485 1480 1472 1471 1474 1474 1469 1466 1472 1468 1471 1457 1451 1437 1443 1445 1450 1455 1460 1463 1468 1475 1478 1480 1483 1483 1484 1484 1483 1483 1481 1478 1476 1474 1473 1472 1468 1460 1455 1452 1449 1444 1440
1489 1481 1476 1470 1469 1469 1466 1460 1459 1460 1458 1453 1448 1442 1437 1437 1442 1445 1450 1455 1459 1467 1471 1477 1477 1480 1482 1482 1481 1481 1481 1479 1476 1472 1469 1469 1469 1465 1458 1454 1450 1447 1441 1436
1486 1482 1478 1468 1462 1464 1469 1451 1451 1453 1449 1447 1444 1431 1433 1434 1439 1442 1445 1450 1456 1463 1470 1474 1476 1477 1479 1480 1481 1480 1478 1477 1474 1472 1467 1466 1464 1459 1455 1453 1449 1443 1439 1434
1479 1477 1476 1470 1466 1469 1444 1439 1441 1439 1436 1436 1434 1428 1432 1433 1437 1441 1442 1446 1454 1462 1467 1470 1473 1475 1477 1478 1478 1477 1477 1476 1473 1471 1465 1465 1461 1457 1454 1451 1448 1441 1436 1431
1470 1472 1471 1470 1455 1446 1438 1436 1436 1434 1427 1426 1426 1425 1426 1434 1439 1442 1443 1448 1456 1462 1467 1467 1471 1475 1476 1477 1476 1477 1477 1475 1473 1468 1465 1463 1460 1456 1452 1450 1446 1440 1434 1430
1455 1460 1463 1459 1455 1446 1431 1429 1431 1430 1426 1420 1421 1423 1425 1433 1429 1438 1448 1452 1458 1462 1465 1468 1471 1474 1475 1475 1475 1476 1476 1473 1471 1468 1466 1462 1458 1456 1452 1447 1445 1438 1436 1430
1451 1454 1456 1452 1450 1436 1425 1428 1433 1434 1422 1424 1425 1426 1427 1429 1435 1442 1449 1456 1460 1462 1465 1469 1471 1473 1474 1473 1475 1476 1475 1472 1470 1469 1466 1461 1457 1455 1450 1447 1443 1440 1435 1429
1437 1445 1443 1444 1442 1437 1422 1425 1428 1427 1427 1428 1427 1428 1431 1434 1440 1446 1452 1456 1460 1463 1467 1470 1472 1473 1473 1474 1475 1475 1472 1471 1470 1468 1465 1461 1457 1453 1449 1447 1444 1439 1433 1427
1432 1429 1430 1434 1432 1425 1427 1427 1429 1429 1429 1430 1429 1431 1432 1436 1443 1449 1453 1456 1460 1465 1468 1471 1472 1473 1473 1473 1473 1473 1472 1471 1470 1468 1464 1460 1456 1454 1452 1447 1442 1437 1432 1426
1427 1427 1427 1426 1420 1420 1426 1429 1428 1428 1425 1431 1431 1432 1433 1436 1444 1449 1454 1457 1462 1466 1468 1471 1472 1473 1473 1473 1472 1472 1472 1471 1469 1466 1463 1460 1458 1454 1452 1448 1443 1438 1432 1426
1420 1423 1420 1417 1417 1424 1423 1423 1424 1425 1427 1432 1433 1434 1435 1440 1448 1450 1455 1459 1462 1465 1468 1470 1472 1472 1473 1473 1473 1472 1471 1469 1468 1466 1463 1459 1458 1455 1453 1449 1444 1439 1435 1429
1417 1417 1416 1414 1414 1416 1415 1419 1420 1425 1428 1431 1433 1435 1441 1444 1445 1452 1456 1459 1462 1465 1467 1470 1471 1472 1472 1473 1472 1471 1470 1469 1467 1465 1463 1460 1459 1457 1454 1450 1447 1442 1436 1430